Terminal Aerodrome Forecast
Issued by NWS

Home | Current Version | Previous Version | Graphics & Text | Print | Product List | Glossary On
Versions: 1 2 3 4 5 6 7 8 9 10 11 12 13 14 15
746
FTUS43 KTOP 210520
TAFFOE
TAF
KFOE 210520Z 2106/2206 20007KT P6SM FEW100
     FM211700 19013G22KT P6SM FEW200
     FM220100 18009KT P6SM SCT250=

USA.gov is the U.S. government's official web portal to all federal, state and local government web resources and services.